Volver al catálogo

STARLINK-31034

ActivoComunicacionesVLEO
NORAD 58785·PAYLOAD·🇺🇸 United States

Lanzado Jan 14, 2024 desde Vandenberg Space Force Base

Loading…

Próximos Pases (próximas 24 horas)

TLE

ActualizadoSource: CelesTrak SupGP

Época: Sep 15, 2026, 01:53 UTC

1 58785C 24011W   26258.07895833  .00038731  00000+0  11444-2 0  2582
2 58785  53.1573 107.3996 0001193  80.2766  27.2973 15.34370259    17

Sigue STARLINK-31034 en tiempo real con AllMySat

Download on the App Store